Location: Banff
(51.1667°N, 115.5667°W)
Time: 20:28:49
(UTC+00:00)

Vanguard 1 Rocket - Pass Details

Date: 05 December 2020
Orbit: 655 x 4221 km, 34.3° (Epoch: 17 January)

Event Time Altitude Azimuth Distance (km) Brightness Sun altitude
Exits shadow 07:56:56 23° 108° (ESE) 5,742 11.2 -60.9°
Drops below altitude 10° 08:03:01 10° 97° (E) 6,424 11.7 -60.7°
Sets 08:07:33 0° 91° (E) 7,060 12.0 -60.5°
